Location: Orange
(40.7703°N, 74.2325°W)
Time: 15:53:57
(UTC+00:00)

Tiangong - Visible Passes

Search period start: 27 November 2022 00:00
Search period end: 07 December 2022 00:00
Orbit: 386 x 393 km, 41.5° (Epoch: 27 November)

Date Brightness Start Highest point End Pass type
(mag) Time Alt. Az. Time Alt. Az. Time Alt. Az.
27 Nov 0.4 22:56:51 10° SSE 22:57:44 11° SSE 22:57:44 11° SSE visible
28 Nov 0.0 23:33:20 10° SW 23:34:51 22° SSW 23:34:51 22° SSW visible
29 Nov -0.2 22:35:42 10° SSW 22:38:06 20° SSE 22:39:29 15° ESE visible
30 Nov 1.4 00:11:32 10° WSW 00:11:47 12° WSW 00:11:47 12° WSW visible
30 Nov -1.7 23:13:17 10° WSW 23:16:15 50° S 23:16:15 50° S visible
01 Dec -1.0 22:15:05 10° SW 22:17:59 33° SSE 22:20:34 12° E visible
01 Dec 0.4 23:51:34 10° W 23:52:51 22° W 23:52:51 22° W visible
02 Dec -2.2 22:52:59 10° WSW 22:56:09 76° SSE 22:57:02 43° E visible
03 Dec -0.9 23:31:10 10° W 23:33:23 41° W 23:33:23 41° W visible
04 Dec -2.2 22:32:19 10° W 22:35:30 84° N 22:37:21 23° E visible
05 Dec 1.3 00:09:16 10° W 00:09:37 12° W 00:09:37 12° W visible
05 Dec -2.2 23:10:19 10° W 23:13:29 78° N 23:13:29 78° N visible
06 Dec -2.1 22:11:14 10° W 22:14:25 76° N 22:17:19 12° E visible
06 Dec 0.3 23:48:10 10° W 23:49:34 24° W 23:49:34 24° W visible
